GW2166 Weather Reports


Display with metric or nautical units.
time (UTC)temp
F
wind
direction
speed
MPH
gust
MPH
rain 1hr
in
rain 24hr
in
rain mn
in
humidity
%
barometer
mb
20240518065902 61 166 2.0 3.0 0.00 0.00 0.00 94 1007.4
20240518065402 62 155 2.0 3.0 0.00 0.00 0.00 93 1007.4
20240518064902 62 176 2.0 4.0 0.00 0.00 0.00 94 1007.5
20240518064402 62 175 2.0 4.0 0.00 0.00 0.00 93 1007.6
20240518063902 62 179 2.0 4.0 0.00 0.00 0.00 93 1007.5
20240518063402 62 178 2.0 4.0 0.00 0.00 0.00 93 1007.6
20240518062902 62 185 2.0 4.0 0.00 0.00 0.00 93 1007.6
20240518061902 62 166 2.0 3.0 0.00 0.00 0.00 93 1007.6
20240518061402 62 173 2.0 3.0 0.00 0.00 0.00 93 1007.5
20240518060902 62 169 2.0 3.0 0.00 0.00 0.00 93 1007.5
20240518060402 62 165 2.0 4.0 0.00 0.00 0.00 92 1007.6
20240518055902 63 169 3.0 4.0 0.00 0.00 0.00 92 1007.6
20240518054902 63 165 3.0 4.0 0.00 0.00 0.00 92 1007.6
20240518054403 63 159 3.0 5.0 0.00 0.00 0.00 92 1007.5
20240518053901 63 173 3.0 5.0 0.00 0.00 0.00 92 1007.6
20240518053402 63 166 3.0 4.0 0.00 0.00 0.00 92 1007.5
20240518052902 63 175 2.0 4.0 0.00 0.00 0.00 91 1007.5
20240518051902 63 168 3.0 4.0 0.00 0.00 0.00 91 1007.5
20240518051402 63 172 3.0 4.0 0.00 0.00 0.00 91 1007.5
20240518050902 64 165 3.0 4.0 0.00 0.00 0.00 91 1007.5
20240518045402 64 176 3.0 4.0 0.00 0.00 0.00 90 1007.5
20240518044902 64 164 2.0 4.0 0.00 0.00 0.00 91 1007.5
20240518044403 64 182 3.0 4.0 0.00 0.00 0.00 91 1007.4
20240518043902 64 165 3.0 4.0 0.00 0.00 0.00 91 1007.4
20240518043401 64 157 2.0 4.0 0.00 0.00 0.00 91 1007.4
20240518042902 64 172 3.0 6.0 0.00 0.00 0.00 91 1007.4
20240518042402 64 195 4.0 6.0 0.00 0.00 0.00 92 1007.4
20240518041902 63 193 3.0 4.0 0.00 0.00 0.00 92 1007.4
20240518041403 63 182 2.0 4.0 0.00 0.00 0.00 92 1007.4
20240518040902 63 203 2.0 4.0 0.00 0.00 0.00 92 1007.4
20240518040402 63 175 2.0 4.0 0.00 0.00 0.00 92 1007.4
20240518035402 63 166 3.0 4.0 0.00 0.00 0.00 92 1007.3
20240518034903 63 169 2.0 3.0 0.00 0.00 0.00 92 1007.3
20240518034402 63 172 2.0 3.0 0.00 0.00 0.00 92 1007.4
20240518033902 63 172 2.0 3.0 0.00 0.00 0.00 92 1007.4
20240518033402 63 172 2.0 3.0 0.00 0.00 0.00 92 1007.3
20240518032902 63 172 1.0 2.0 0.00 0.00 0.00 91 1007.3
20240518031902 63 172 2.0 3.0 0.00 0.00 0.00 91 1007.2
20240518031402 63 172 1.0 3.0 0.00 0.00 0.00 91 1007.2
20240518030901 63 172 2.0 3.0 0.00 0.00 0.00 92 1007.2
20240518025902 63 172 2.0 2.0 0.00 0.00 0.00 90 1006.9
20240518025401 63 172 1.0 2.0 0.00 0.00 0.00 90 1006.8
20240518024902 63 172 0.0 2.0 0.00 0.00 0.00 90 1006.9
20240518024402 63 172 1.0 2.0 0.00 0.00 0.00 89 1006.8
20240518023902 63 172 1.0 2.0 0.00 0.00 0.00 89 1006.7
20240518023402 64 172 1.0 1.0 0.00 0.00 0.00 88 1006.6
20240518022902 64 172 0.0 2.0 0.00 0.00 0.00 88 1006.5
20240518022402 64 172 1.0 3.0 0.00 0.00 0.00 87 1006.4
20240518021903 65 164 2.0 3.0 0.00 0.00 0.00 86 1006.4
20240518021402 65 165 1.0 2.0 0.00 0.00 0.00 86 1006.3
20240518020902 65 165 0.0 2.0 0.00 0.00 0.00 86 1006.3
20240518015401 66 165 1.0 1.0 0.00 0.00 0.00 84 1006.3
20240518014901 67 165 0.0 1.0 0.00 0.00 0.00 83 1006.2
20240518014402 67 165 0.0 1.0 0.00 0.00 0.00 82 1006.1
20240518013902 67 165 0.0 2.0 0.00 0.00 0.00 81 1006.1
20240518013402 68 165 0.0 2.0 0.00 0.00 0.00 80 1006.1
20240518012901 69 165 2.0 2.0 0.00 0.00 0.00 79 1006.1
20240518011902 71 165 1.0 2.0 0.00 0.00 0.00 76 1006.0
20240518011402 72 165 2.0 5.0 0.00 0.00 0.00 74 1006.0
20240518010902 73 165 2.0 5.0 0.00 0.00 0.00 70 1006.1
20240518010402 75 190 2.0 5.0 0.00 0.00 0.00 66 1006.0
20240518005902 76 213 2.0 5.0 0.00 0.00 0.00 62 1006.0
20240518005402 76 214 3.0 5.0 0.00 0.00 0.00 61 1006.0
20240518004902 77 204 3.0 5.0 0.00 0.00 0.00 59 1006.0
20240518004401 77 206 3.0 6.0 0.00 0.00 0.00 58 1006.0
20240518003902 78 197 4.0 6.0 0.00 0.00 0.00 59 1005.9
20240518003402 78 207 2.0 5.0 0.00 0.00 0.00 59 1005.9
20240518002402 79 221 3.0 9.0 0.00 0.00 0.00 56 1005.8
20240518001902 79 227 5.0 12.0 0.00 0.00 0.00 55 1005.7
20240518001402 79 223 3.0 12.0 0.00 0.00 0.00 55 1005.6
20240518000902 80 212 4.0 9.0 0.00 0.00 0.00 56 1005.7
20240518000402 80 204 4.0 10.0 0.00 0.00 0.00 56 1005.7
20240517235902 80 149 5.0 10.0 0.00 0.00 0.00 56 1005.8
20240517234902 80 195 4.0 10.0 0.00 0.00 0.00 56 1005.7
20240517234403 79 196 3.0 4.0 0.00 0.00 0.00 58 1005.7
20240517233902 78 207 2.0 7.0 0.00 0.00 0.00 60 1005.8
20240517233401 78 210 3.0 7.0 0.00 0.00 0.00 58 1005.8
20240517232902 79 216 4.0 7.0 0.00 0.00 0.00 56 1005.9
20240517232402 80 212 4.0 9.0 0.00 0.00 0.00 53 1005.9
20240517231902 80 171 5.0 9.0 0.00 0.00 0.00 54 1005.8
20240517231401 80 179 4.0 12.0 0.00 0.00 0.00 53 1005.8
20240517230902 82 248 6.0 12.0 0.00 0.00 0.00 52 1005.9
20240517230402 82 213 5.0 11.0 0.00 0.00 0.00 52 1005.8
20240517225902 82 188 7.0 11.0 0.00 0.00 0.00 51 1005.8
20240517225401 82 151 6.0 11.0 0.00 0.00 0.00 51 1005.8
20240517224903 82 183 4.0 9.0 0.00 0.00 0.00 52 1005.8
20240517224402 82 100 6.0 9.0 0.00 0.00 0.00 50 1005.7
20240517223903 82 204 4.0 9.0 0.00 0.00 0.00 57 1005.8
20240517222902 82 230 6.0 10.0 0.00 0.00 0.00 54 1005.8
20240517221902 82 227 6.0 10.0 0.00 0.00 0.00 51 1005.9
20240517221402 82 233 4.0 7.0 0.00 0.00 0.00 55 1005.9
20240517220902 81 157 4.0 10.0 0.00 0.00 0.00 57 1005.9
20240517220402 80 217 5.0 10.0 0.00 0.00 0.00 55 1006.0
20240517215402 82 204 6.0 12.0 0.00 0.00 0.00 53 1006.0
20240517214902 82 248 5.0 10.0 0.00 0.00 0.00 51 1005.9
20240517214402 82 189 5.0 10.0 0.00 0.00 0.00 54 1006.0
20240517213902 82 149 5.0 12.0 0.00 0.00 0.00 52 1006.0
20240517213402 82 228 7.0 12.0 0.00 0.00 0.00 53 1006.0
20240517212902 82 233 7.0 11.0 0.00 0.00 0.00 54 1006.0
20240517212403 82 182 5.0 9.0 0.00 0.00 0.00 54 1006.0
20240517211902 82 237 3.0 13.0 0.00 0.00 0.00 56 1006.0
20240517211402 83 189 7.0 13.0 0.00 0.00 0.00 55 1006.0
20240517210902 82 99 4.0 10.0 0.00 0.00 0.00 54 1006.0
20240517210402 82 200 3.0 13.0 0.00 0.00 0.00 57 1006.1
20240517205902 80 152 7.0 13.0 0.00 0.00 0.00 55 1006.2
20240517205402 82 240 4.0 13.0 0.00 0.00 0.00 53 1006.1
20240517204902 82 251 5.0 13.0 0.00 0.00 0.00 56 1006.1
20240517204402 82 183 3.0 13.0 0.00 0.00 0.00 53 1006.3
20240517203402 82 250 8.0 13.0 0.00 0.00 0.00 51 1006.4
20240517202902 82 155 5.0 14.0 0.00 0.00 0.00 54 1006.4
20240517202402 82 157 6.0 14.0 0.00 0.00 0.00 56 1006.5
20240517201902 82 176 5.0 12.0 0.00 0.00 0.00 55 1006.5
20240517201402 82 159 6.0 14.0 0.00 0.00 0.00 54 1006.7
20240517200901 82 166 8.0 14.0 0.00 0.00 0.00 59 1006.7
20240517200402 82 219 6.0 13.0 0.00 0.00 0.00 56 1006.8
20240517195902 81 161 6.0 13.0 0.00 0.00 0.00 59 1006.8
20240517195403 80 226 3.0 11.0 0.00 0.00 0.00 60 1006.8
20240517194901 81 142 5.0 11.0 0.00 0.00 0.00 60 1006.9
20240517194403 81 118 5.0 12.0 0.00 0.00 0.00 59 1007.1
20240517193903 80 179 3.0 13.0 0.00 0.00 0.00 61 1007.1
20240517193402 81 134 6.0 14.0 0.00 0.00 0.00 56 1007.3
20240517192901 81 203 6.0 14.0 0.00 0.00 0.00 60 1007.2
20240517192402 81 148 4.0 11.0 0.00 0.00 0.00 58 1007.3
20240517191902 80 114 3.0 6.0 0.00 0.00 0.00 59 1007.3
20240517191403 79 142 1.0 7.0 0.00 0.00 0.00 64 1007.3
20240517190903 78 192 4.0 10.0 0.00 0.00 0.00 60 1007.4
20240517190401 79 185 6.0 12.0 0.00 0.00 0.00 59 1007.4
20240517185902 79 186 6.0 12.0 0.00 0.00 0.00 64 1007.4
20240517185402 78 179 5.0 7.0 0.00 0.00 0.00 62 1007.4
20240517184902 81 158 4.0 12.0 0.00 0.00 0.00 58 1007.3
20240517184403 81 214 7.0 12.0 0.00 0.00 0.00 59 1007.4
20240517183902 80 204 4.0 7.0 0.00 0.00 0.00 62 1007.3
20240517183402 80 226 2.0 11.0 0.00 0.00 0.00 56 1007.4
20240517182902 78 217 6.0 11.0 0.00 0.00 0.00 62 1007.4
20240517182402 79 100 3.0 12.0 0.00 0.00 0.00 59 1007.6
20240517181902 81 173 6.0 12.0 0.00 0.00 0.00 59 1007.5
20240517181402 80 200 4.0 10.0 0.00 0.00 0.00 61 1007.5
20240517180402 79 157 5.0 10.0 0.00 0.00 0.00 62 1007.6
20240517175902 79 130 6.0 10.0 0.00 0.00 0.00 63 1007.6
20240517175401 80 190 5.0 9.0 0.00 0.00 0.00 63 1007.6
20240517174402 80 235 4.0 11.0 0.00 0.00 0.00 63 1007.8
20240517173902 78 172 4.0 10.0 0.00 0.00 0.00 68 1007.8
20240517173402 77 75 2.0 10.0 0.00 0.00 0.00 66 1007.8
20240517172902 78 193 5.0 12.0 0.00 0.00 0.00 65 1008.0
20240517172402 78 123 6.0 12.0 0.00 0.00 0.00 67 1008.0
20240517171902 76 221 2.0 5.0 0.00 0.00 0.00 71 1008.1
20240517170402 78 154 4.0 10.0 0.00 0.00 0.00 66 1008.1
20240517165902 77 172 6.0 12.0 0.00 0.00 0.00 65 1008.0
20240517165402 78 182 5.0 12.0 0.00 0.00 0.00 65 1008.2
20240517164902 77 149 2.0 7.0 0.00 0.00 0.00 64 1008.2
20240517164402 77 109 3.0 7.0 0.00 0.00 0.00 66 1008.2
20240517163902 76 210 4.0 10.0 0.00 0.00 0.00 68 1008.4
20240517163402 76 109 4.0 10.0 0.00 0.00 0.00 66 1008.3
20240517162401 77 158 6.0 10.0 0.00 0.00 0.00 69 1008.4
20240517161902 76 58 3.0 7.0 0.00 0.00 0.00 68 1008.3
20240517161402 76 144 5.0 7.0 0.00 0.00 0.00 69 1008.3
20240517160902 75 186 1.0 6.0 0.00 0.00 0.00 72 1008.3
20240517160401 76 233 4.0 7.0 0.00 0.00 0.00 72 1008.3
20240517155902 76 250 3.0 7.0 0.00 0.00 0.00 71 1008.2
20240517155402 76 341 2.0 4.0 0.00 0.00 0.00 74 1008.3
20240517154902 75 358 2.0 3.0 0.00 0.00 0.00 74 1008.3
20240517154402 75 358 2.0 4.0 0.00 0.00 0.00 75 1008.3
20240517153902 75 228 2.0 4.0 0.00 0.00 0.00 75 1008.3
20240517153402 74 39 2.0 3.0 0.00 0.00 0.00 76 1008.3
20240517152402 74 312 3.0 5.0 0.00 0.00 0.00 77 1008.3
20240517151902 73 179 3.0 5.0 0.00 0.00 0.00 78 1008.3
20240517151402 73 338 2.0 4.0 0.00 0.00 0.00 79 1008.2
20240517150902 73 233 0.0 4.0 0.00 0.00 0.00 81 1008.3
20240517150402 72 251 1.0 4.0 0.00 0.00 0.00 83 1008.3
20240517145902 72 286 2.0 3.0 0.00 0.00 0.00 82 1008.2
20240517145402 71 49 2.0 3.0 0.00 0.00 0.00 82 1008.3
20240517143402 70 289 1.0 4.0 0.00 0.01 0.00 87 1008.4
20240517142902 70 347 2.0 4.0 0.00 0.01 0.00 88 1008.3
20240517142401 69 309 2.0 4.0 0.00 0.01 0.00 89 1008.4
20240517141903 68 320 2.0 4.0 0.00 0.01 0.00 90 1008.3
20240517141402 68 329 2.0 3.0 0.00 0.01 0.00 94 1008.4
20240517140901 66 307 1.0 3.0 0.00 0.01 0.00 95 1008.4
20240517140401 66 290 2.0 3.0 0.00 0.01 0.00 96 1008.4
20240517135902 66 306 1.0 3.0 0.00 0.01 0.00 97 1008.4
20240517135402 64 47 0.0 2.0 0.00 0.01 0.00 97 1008.4
20240517134901 64 42 0.0 2.0 0.00 0.01 0.00 97 1008.4
20240517134401 64 42 0.0 2.0 0.00 0.01 0.00 97 1008.4
20240517133902 64 42 1.0 2.0 0.00 0.01 0.00 97 1008.5
20240517133402 64 42 1.0 2.0 0.00 0.01 0.00 97 1008.5
20240517132902 64 17 1.0 2.0 0.00 0.01 0.00 97 1008.5
20240517132402 63 17 0.0 2.0 0.00 0.01 0.00 97 1008.5
20240517131402 62 32 1.0 2.0 0.00 0.01 0.00 97 1008.5
20240517125902 61 107 1.0 2.0 0.00 0.01 0.00 97 1008.5
20240517125402 60 107 0.0 0.0 0.00 0.01 0.00 97 1008.5
20240517124902 60 107 0.0 1.0 0.00 0.01 0.00 97 1008.6
20240517124402 59 107 0.0 2.0 0.00 0.01 0.00 97 1008.5
20240517123901 59 107 1.0 2.0 0.00 0.01 0.00 97 1008.6
20240517123402 58 107 0.0 1.0 0.00 0.01 0.00 97 1008.6
20240517122902 58 107 0.0 1.0 0.00 0.01 0.00 97 1008.5
20240517122402 58 107 0.0 1.0 0.00 0.01 0.00 97 1008.5
20240517121903 57 107 0.0 0.0 0.00 0.01 0.00 97 1008.5
20240517121402 57 107 0.0 0.0 0.00 0.01 0.00 97 1008.5
20240517120901 56 107 0.0 0.0 0.00 0.01 0.00 96 1008.5
20240517120403 55 107 0.0 0.0 0.00 0.01 0.00 96 1008.5
20240517115902 55 107 0.0 0.0 0.00 0.01 0.00 96 1008.5
20240517115402 55 107 0.0 0.0 0.00 0.01 0.00 97 1008.3
20240517114902 54 107 0.0 0.0 0.00 0.01 0.00 96 1008.4
20240517114402 54 107 0.0 0.0 0.00 0.01 0.00 96 1008.4
20240517113902 54 107 0.0 0.0 0.00 0.01 0.00 96 1008.4
20240517113402 54 107 0.0 0.0 0.00 0.01 0.00 96 1008.4
20240517112402 54 107 0.0 0.0 0.00 0.01 0.00 96 1008.3
20240517111902 54 107 0.0 1.0 0.00 0.01 0.00 96 1008.3
20240517111402 53 107 0.0 1.0 0.00 0.01 0.00 96 1008.4
20240517110402 53 107 0.0 1.0 0.00 0.01 0.00 96 1008.2
20240517105901 54 107 0.0 1.0 0.00 0.01 0.00 96 1008.2
20240517105402 54 107 0.0 3.0 0.00 0.01 0.00 96 1008.2
20240517104902 53 107 2.0 3.0 0.00 0.01 0.00 96 1008.1
20240517104402 54 107 0.0 0.0 0.00 0.01 0.00 96 1008.1
20240517103902 54 107 0.0 0.0 0.00 0.01 0.00 96 1008.1
20240517102403 54 107 0.0 0.0 0.00 0.02 0.00 96 1008.0
20240517101902 54 107 0.0 1.0 0.00 0.02 0.00 96 1008.1
20240517100402 54 107 0.0 0.0 0.00 0.02 0.00 96 1007.9
20240517095901 53 107 0.0 0.0 0.00 0.03 0.00 96 1007.9
20240517095401 53 107 0.0 0.0 0.00 0.03 0.00 96 1007.8
20240517094902 54 107 0.0 0.0 0.00 0.03 0.00 96 1007.7
20240517093902 54 107 0.0 0.0 0.00 0.03 0.00 96 1007.8
20240517093402 54 107 0.0 0.0 0.00 0.03 0.00 96 1007.7
20240517092903 54 107 0.0 0.0 0.00 0.03 0.00 96 1007.7
20240517091901 55 107 0.0 0.0 0.00 0.04 0.00 96 1007.6
20240517090902 55 107 0.0 0.0 0.00 0.04 0.00 96 1007.7
20240517090402 54 107 0.0 0.0 0.00 0.05 0.00 96 1007.7
20240517085902 54 107 0.0 2.0 0.00 0.05 0.00 96 1007.8
20240517085402 55 107 0.0 3.0 0.00 0.06 0.00 96 1007.8
20240517084902 55 107 2.0 3.0 0.00 0.07 0.00 96 1007.8
20240517083902 55 334 0.0 2.0 0.00 0.08 0.00 96 1007.9
20240517083402 55 334 0.0 3.0 0.00 0.08 0.00 96 1007.9
20240517082903 56 334 1.0 3.0 0.00 0.08 0.00 96 1008.0
20240517082402 56 334 0.0 2.0 0.00 0.08 0.00 96 1007.9
20240517081902 56 334 1.0 2.0 0.00 0.08 0.00 96 1007.9
20240517080901 55 66 0.0 0.0 0.00 0.09 0.00 95 1008.0
20240517080401 55 66 0.0 1.0 0.00 0.09 0.00 96 1008.0
20240517075402 56 66 0.0 1.0 0.00 0.09 0.00 96 1008.1
20240517074901 56 66 0.0 2.0 0.00 0.10 0.00 95 1008.0
20240517074401 56 66 1.0 2.0 0.00 0.10 0.00 95 1008.1
20240517073901 57 333 0.0 3.0 0.00 0.10 0.00 96 1008.1
20240517073401 57 333 1.0 3.0 0.00 0.10 0.00 96 1008.1
20240517072901 56 333 2.0 3.0 0.00 0.10 0.00 95 1008.1
20240517072401 57 333 0.0 0.0 0.00 0.10 0.00 95 1008.2
20240517071900 57 333 0.0 4.0 0.00 0.10 0.00 96 1008.3
20240517070901 58 333 2.0 3.0 0.00 0.10 0.00 96 1008.5
20240517070400 57 333 2.0 3.0 0.00 0.10 0.00 96 1008.5